TimeMDT,TemperatureF,Dew PointF,Humidity,Sea Level PressureIn,VisibilityMPH,Wind Direction,Wind SpeedMPH,Gust SpeedMPH,PrecipitationIn,Events,Conditions,WindDirDegrees,DateUTC
12:15 AM,66.2,44.6,46,29.69,10.0,South,10.4,-,N/A,,Partly Cloudy,180,2013-09-22 06:15:00
12:35 AM,66.2,44.6,46,29.69,10.0,South,8.1,-,N/A,,Clear,180,2013-09-22 06:35:00
12:55 AM,66.2,50.0,56,29.69,10.0,South,4.6,-,N/A,,Clear,190,2013-09-22 06:55:00
1:15 AM,62.6,46.4,55,29.69,10.0,East,5.8,-,N/A,,Clear,100,2013-09-22 07:15:00
1:35 AM,62.6,46.4,55,29.69,10.0,East,3.5,-,N/A,,Partly Cloudy,100,2013-09-22 07:35:00
1:55 AM,62.6,46.4,55,29.69,10.0,SE,5.8,-,N/A,,Mostly Cloudy,130,2013-09-22 07:55:00
2:15 AM,62.6,46.4,55,29.69,10.0,ESE,5.8,-,N/A,,Partly Cloudy,120,2013-09-22 08:15:00
2:35 AM,62.6,46.4,55,29.69,10.0,ESE,3.5,-,N/A,,Scattered Clouds,110,2013-09-22 08:35:00
2:55 AM,62.6,46.4,55,29.69,10.0,Calm,Calm,-,N/A,,Mostly Cloudy,0,2013-09-22 08:55:00
3:15 AM,60.8,46.4,59,29.69,10.0,ENE,3.5,-,N/A,,Overcast,70,2013-09-22 09:15:00
3:35 AM,60.8,46.4,59,29.68,10.0,NE,4.6,-,N/A,,Overcast,40,2013-09-22 09:35:00
3:55 AM,62.6,46.4,55,29.69,10.0,East,3.5,-,N/A,,Overcast,80,2013-09-22 09:55:00
4:15 AM,62.6,44.6,52,29.69,10.0,East,3.5,-,N/A,,Overcast,80,2013-09-22 10:15:00
4:35 AM,62.6,46.4,55,29.68,10.0,ENE,4.6,-,N/A,,Mostly Cloudy,60,2013-09-22 10:35:00
4:55 AM,60.8,46.4,59,29.68,10.0,ENE,5.8,-,N/A,,Scattered Clouds,70,2013-09-22 10:55:00
5:15 AM,60.8,46.4,59,29.67,10.0,NNE,4.6,-,N/A,,Scattered Clouds,30,2013-09-22 11:15:00
5:35 AM,60.8,46.4,59,29.67,10.0,NE,3.5,-,N/A,,Mostly Cloudy,50,2013-09-22 11:35:00
5:55 AM,60.8,44.6,55,29.66,10.0,Calm,Calm,-,N/A,,Overcast,0,2013-09-22 11:55:00
6:15 AM,62.6,44.6,52,29.66,10.0,SSE,3.5,-,N/A,,Overcast,150,2013-09-22 12:15:00
6:35 AM,60.8,48.2,63,29.66,10.0,ESE,5.8,-,N/A,,Mostly Cloudy,110,2013-09-22 12:35:00
6:50 AM,59.0,48.2,67,29.66,15.0,Calm,Calm,-,N/A,,Overcast,0,2013-09-22 12:50:00
7:50 AM,60.8,46.4,59,29.67,15.0,Calm,Calm,-,N/A,,Overcast,0,2013-09-22 13:50:00
8:50 AM,62.6,46.4,55,29.68,15.0,Variable,4.6,-,N/A,,Overcast,0,2013-09-22 14:50:00
9:50 AM,62.6,48.2,59,29.70,15.0,ENE,5.8,-,N/A,,Mostly Cloudy,60,2013-09-22 15:50:00
10:50 AM,66.2,37.4,35,29.71,15.0,South,5.8,-,N/A,,Overcast,190,2013-09-22 16:50:00
11:55 AM,66.2,39.2,37,29.72,15.0,ESE,11.5,-,N/A,,Mostly Cloudy,120,2013-09-22 17:55:00
12:50 PM,64.4,41.0,42,29.74,15.0,SE,17.3,-,N/A,,Mostly Cloudy,140,2013-09-22 18:50:00
1:50 PM,69.8,39.2,33,29.70,15.0,South,6.9,-,N/A,,Mostly Cloudy,170,2013-09-22 19:50:00
2:49 PM,66.2,37.4,35,29.70,15.0,South,8.1,-,N/A,,Mostly Cloudy,190,2013-09-22 20:49:00
3:55 PM,71.6,37.4,29,29.69,15.0,SSW,9.2,-,N/A,,Scattered Clouds,200,2013-09-22 21:55:00
4:50 PM,69.8,39.2,33,29.70,15.0,Variable,5.8,-,N/A,,Mostly Cloudy,0,2013-09-22 22:50:00
5:50 PM,66.2,39.2,37,29.73,15.0,NW,13.8,-,N/A,,Mostly Cloudy,320,2013-09-22 23:50:00
6:50 PM,62.6,42.8,48,29.76,15.0,SW,20.7,29.9,N/A,,Mostly Cloudy,220,2013-09-23 00:50:00
8:50 PM,55.4,41.0,58,29.82,15.0,South,10.4,-,N/A,,Scattered Clouds,170,2013-09-23 02:50:00
8:55 PM,55.4,41.0,58,29.82,10.0,South,9.2,-,N/A,,Partly Cloudy,170,2013-09-23 02:55:00
9:15 PM,55.4,41.0,58,29.83,10.0,South,9.2,-,N/A,,Clear,180,2013-09-23 03:15:00
9:35 PM,55.4,42.8,63,29.84,10.0,South,3.5,-,N/A,,Partly Cloudy,180,2013-09-23 03:35:00
9:55 PM,55.4,42.8,63,29.84,10.0,ENE,4.6,-,N/A,,Partly Cloudy,60,2013-09-23 03:55:00
10:15 PM,53.6,42.8,67,29.85,10.0,East,4.6,-,N/A,,Clear,90,2013-09-23 04:15:00
10:35 PM,53.6,42.8,67,29.87,10.0,North,5.8,-,N/A,,Scattered Clouds,10,2013-09-23 04:35:00
10:55 PM,57.2,41.0,55,29.88,10.0,NNW,10.4,-,N/A,,Overcast,340,2013-09-23 04:55:00
11:15 PM,59.0,41.0,51,29.89,10.0,NNW,6.9,-,N/A,,Overcast,340,2013-09-23 05:15:00
11:35 PM,57.2,41.0,55,29.89,10.0,North,3.5,-,N/A,,Overcast,350,2013-09-23 05:35:00
11:55 PM,57.2,42.8,59,29.90,10.0,NNW,11.5,-,N/A,,Overcast,330,2013-09-23 05:55:00